Regional Weather Roundup
Issued by NWS Kansas City/Pleasant Hill, MO

Home | Current Version | Previous Version | Text Only | Print | Product List | Glossary On
Versions: 1 2 3 4 5 6 7 8 9 10 11 12 13 14 15 16 17 18 19 20 21 22 23 24 25 26 27 28 29 30 31 32 33 34 35 36 37 38 39 40 41 42 43 44 45 46 47 48 49 50
000
ASUS43 KEAX 271211
RWREAX

WEATHER ROUNDUP FOR EASTERN KANSAS AND NORTHWEST MISSOURI
NATIONAL WEATHER SERVICE KANSAS CITY/PLEASANT HILL MO
600 AM CST FRI FEB 27 2015

KSZ040-057-103>105-MOZ028-029-037-043-271300-
...KANSAS CITY METROPOLITAN AREA...

CITY           SKY/WX    TMP DP  RH WIND       PRES   REMARKS
K.C. INTL      PTCLDY     1  -4  79 CALM      30.60R
6HR MIN TEMP:   0; 6HR MAX TEMP:   4;

K.C. DOWNTOWN  CLEAR      4  -5  66 N6        30.63R WCI  -7
6HR MIN TEMP:   4; 6HR MAX TEMP:   8;

LEES SUMMIT    CLEAR      3  -4  72 N8        30.59S WCI -10
6HR MIN TEMP:   2; 6HR MAX TEMP:   7;

OLATHE - IXD   CLEAR      3  -3  76 NW3       30.61R
6HR MIN TEMP:   1; 6HR MAX TEMP:   6;

OLATHE - OJC   CLEAR      4  -3  73 N3        30.58R
6HR MIN TEMP:   4; 6HR MAX TEMP:   8;

LAWRENCE       PTCLDY     2  -3  80 W3        30.63R

$$

MOZ001>008-011>017-020>025-030>033-038>040-044>046-053-054-271300-
...NORTHERN AND CENTRAL MISSOURI...

CITY           SKY/WX    TMP DP  RH WIND       PRES   REMARKS
ST. JOSEPH     CLEAR     -2  -5  87 N3        30.63R
6HR MIN TEMP:  -2; 6HR MAX TEMP:   3;

MOSBY            N/A      3   0  85 CALM      30.63R
WARRENSBURG    CLEAR      3   0  85 CALM      30.62R
WHITEMAN AFB   CLEAR      2  -3  79 N5        30.59S WCI  -8
6HR MIN TEMP:   2; 6HR MAX TEMP:   7;

CLINTON        CLEAR      7   1  78 CALM      30.63R
SEDALIA        CLEAR      3  -3  76 N5        30.61R WCI  -6
6HR MIN TEMP:   3; 6HR MAX TEMP:   9;

WARSAW         NOT AVBL
MARSHALL       CLEAR      5   0  78 CALM      30.62S
CHILLICOTHE      N/A      0  -6  76 CALM      30.63R
6HR MIN TEMP:   0; 6HR MAX TEMP:   4;

MOBERLY        CLEAR      1  -6  71 W3        30.61R
KIRKSVILLE     CLEAR     -6  -8  91 NW5       30.58S WCI -17
6HR MIN TEMP:  -7; 6HR MAX TEMP:  -1;


$$

MOZ041-047>049-056>058-063>065-088>090-097-271300-
...EASTERN AND SOUTHERN MISSOURI...

CITY           SKY/WX    TMP DP  RH WIND       PRES   REMARKS
ST. LOUIS INTL CLEAR      3  -6  66 NW5       30.62R WCI  -6
6HR MIN TEMP:   3; 6HR MAX TEMP:   9;

SPIRIT OF STL  CLEAR      3  -5  69 NW3       30.63R
COLUMBIA       CLEAR      1  -4  79 N6        30.59S WCI -10
JEFFERSON CITY CLEAR      4  -4  69 CALM      30.64R
MEXICO         CLEAR      1  -2  85 NW5       30.60R WCI  -8
HANNIBAL       CLEAR     -2  -9  71 NW5       30.60R WCI -12
ROLLA          CLEAR      2  -6  69 N6        30.55R WCI  -9
OSAGE BEACH    CLEAR      3   0  85 CALM      30.58S
SPRINGFIELD    CLEAR      7   0  73 N6        30.52S WCI  -3
NEVADA         CLEAR      5   0  78 NE5       30.61S WCI  -4
JOPLIN         CLEAR      8   2  76 NE6       30.58R WCI  -2
WEST PLAINS    CLEAR      6  -2  69 N5        30.53R WCI  -3

$$

IAZ060-094-KSZ022-034>040-054-083-096-NEZ052-066-093-271300-
...KANSAS...SOUTHEAST NEBRASKA AND IOWA...

CITY           SKY/WX    TMP DP  RH WIND       PRES   REMARKS
TOPEKA         CLEAR      5  -2  72 CALM      30.63R
6HR MIN TEMP:   3; 6HR MAX TEMP:   7;

MANHATTAN      PTCLDY     7   3  84 CALM      30.60R
EMPORIA        PTCLDY     5   1  83 CALM      30.57S
CHANUTE        CLEAR      7  -1  70 NE7       30.59R WCI  -5
WICHITA        CLOUDY    11  -1  58 E8        30.56R WCI  -1
OMAHA          CLEAR     -1  -5  82 CALM      30.61R
LINCOLN        CLEAR     -4  -9  79 S3        30.60R
FALLS CITY     CLEAR     -4  -9  79 NW5       30.61R WCI -15
LAMONI         CLEAR     -6 -11  79 W5        30.57R WCI -17
DES MOINES     CLEAR     -6 -12  75 W5        30.59R WCI -17

$$



USA.gov is the U.S. government's official web portal to all federal, state and local government web resources and services.